FW6321 Weather Reports


time (UTC)temp
C
wind
direction
speed
KPH
gust
KPH
rain 1hr
cm
rain 24hr
cm
rain mn
cm
humidity
%
barometer
mb
20260903171430 21 234 11.3 22.5 0.00 0.15 0.15 85 1017.8
20260903171006 21 219 12.9 27.4 0.00 0.15 0.15 85 1017.5
20260903170941 21 225 12.9 25.7 0.00 0.15 0.15 85 1017.6
20260903165931 21 232 12.9 27.4 0.00 0.15 0.15 85 1017.5
20260903165430 22 219 14.5 27.4 0.00 0.15 0.15 84 1017.6
20260903164931 22 192 14.5 30.6 0.00 0.15 0.15 84 1017.6
20260903164433 22 240 14.5 30.6 0.00 0.15 0.15 84 1017.6
20260903163933 22 187 16.1 30.6 0.00 0.15 0.15 83 1017.5
20260903163433 22 210 16.1 30.6 0.00 0.15 0.15 83 1017.6
20260903163039 22 190 12.9 29.0 0.00 0.15 0.15 84 1018.0
20260903163029 22 233 12.9 29.0 0.00 0.15 0.15 83 1018.0
20260903162945 22 243 12.9 29.0 0.00 0.15 0.15 84 1017.8
20260903161434 22 256 14.5 27.4 0.00 0.15 0.15 83 1017.9
20260903160932 22 220 14.5 27.4 0.00 0.15 0.15 83 1017.8
20260903160537 22 249 16.1 35.4 0.00 0.15 0.15 81 1017.8
20260903160451 22 233 14.5 29.0 0.00 0.15 0.15 82 1017.5
20260903160140 22 222 16.1 30.6 0.00 0.15 0.15 82 1017.6
20260903154931 22 228 14.5 35.4 0.00 0.15 0.15 81 1017.8
20260903154430 22 224 12.9 22.5 0.00 0.15 0.15 81 1017.9
20260903153930 22 234 14.5 33.8 0.00 0.15 0.15 80 1017.9
20260903153432 22 237 14.5 33.8 0.00 0.15 0.15 80 1018.0
20260903152934 22 194 12.9 30.6 0.00 0.15 0.15 80 1018.0
20260903152432 22 201 14.5 27.4 0.00 0.15 0.15 80 1017.9
20260903152425 22 225 12.9 27.4 0.00 0.15 0.15 79 1018.0
20260903151433 23 204 14.5 27.4 0.00 0.15 0.15 78 1018.0
20260903150931 23 231 14.5 29.0 0.00 0.15 0.15 78 1018.1
20260903150432 23 227 16.1 29.0 0.00 0.15 0.15 78 1018.0
20260903150000 22 236 19.3 41.8 0.00 0.15 0.15 77 1017.9
20260903145938 22 241 17.7 30.6 0.00 0.15 0.15 78 1017.9
20260903144931 23 237 20.9 41.8 0.00 0.15 0.15 77 1017.8
20260903144432 22 268 22.5 46.7 0.00 0.15 0.15 77 1017.9
20260903143933 22 190 22.5 46.7 0.00 0.15 0.15 77 1017.8
20260903143432 22 231 20.9 40.2 0.00 0.15 0.15 79 1017.8
20260903142930 22 240 20.9 40.2 0.00 0.15 0.15 79 1017.8
20260903142432 22 199 20.9 41.8 0.00 0.15 0.15 78 1017.8
20260903141934 22 229 22.5 41.8 0.00 0.15 0.15 78 1017.6
20260903141430 23 211 20.9 38.6 0.00 0.15 0.15 78 1017.8
20260903140950 22 233 17.7 40.2 0.00 0.15 0.15 80 1017.8
20260903140933 23 258 17.7 35.4 0.00 0.15 0.15 79 1017.8
20260903140644 22 242 16.1 40.2 0.00 0.15 0.15 81 1017.9
20260903135423 22 197 16.1 38.6 0.00 0.15 0.15 80 1017.7
20260903134919 22 234 19.3 33.8 0.00 0.15 0.15 81 1017.9
20260903134413 22 256 20.9 37.0 0.00 0.15 0.15 79 1017.9
20260903133907 22 243 19.3 37.0 0.00 0.15 0.15 77 1017.8
20260903133518 22 273 17.7 37.0 0.00 0.15 0.15 77 1017.7
20260903133422 22 272 17.7 37.0 0.00 0.15 0.15 79 1017.8
20260903132405 22 195 19.3 41.8 0.00 0.15 0.15 79 1017.7
20260903131909 22 252 22.5 46.7 0.00 0.15 0.15 78 1017.6
20260903131408 22 253 20.9 46.7 0.00 0.15 0.15 77 1017.5
20260903131358 22 270 19.3 32.2 0.00 0.15 0.15 77 1017.6
20260903130504 22 243 19.3 38.6 0.00 0.15 0.15 79 1017.6
20260903130425 23 233 20.9 38.6 0.00 0.15 0.15 79 1017.6
20260903125647 21 226 19.3 38.6 0.00 0.15 0.15 82 1017.6
20260903125510 22 249 19.3 38.6 0.00 0.15 0.15 80 1017.6
20260903125123 21 225 20.9 38.6 0.00 0.15 0.15 82 1017.6
20260903124935 21 210 17.7 38.6 0.00 0.15 0.15 82 1017.5
20260903123402 21 224 17.7 37.0 0.00 0.15 0.15 83 1017.6
20260903122908 21 219 17.7 37.0 0.00 0.15 0.15 83 1017.5
20260903122403 21 239 17.7 29.0 0.00 0.15 0.15 84 1017.5
20260903121926 21 221 17.7 40.2 0.00 0.15 0.15 84 1017.4
20260903121423 21 212 19.3 40.2 0.00 0.15 0.15 84 1017.4
20260903120921 22 256 20.9 40.2 0.03 0.15 0.15 85 1017.4
20260903115902 21 210 17.7 41.8 0.03 0.15 0.15 84 1017.4
20260903115409 22 237 14.5 30.6 0.03 0.15 0.15 84 1017.3
20260903115200 22 218 16.1 40.2 0.03 0.15 0.15 85 1017.3
20260903114935 22 227 16.1 30.6 0.03 0.15 0.15 85 1017.3
20260903113902 22 256 17.7 40.2 0.03 0.15 0.15 85 1017.2
20260903113505 22 234 17.7 40.2 0.03 0.15 0.15 87 1017.3
20260903113003 21 249 17.7 38.6 0.03 0.15 0.15 89 1017.3
20260903111902 21 243 16.1 38.6 0.03 0.15 0.15 90 1017.4
20260903111400 21 137 14.5 27.4 0.03 0.15 0.13 88 1017.4
20260903110901 21 254 16.1 33.8 0.00 0.13 0.13 87 1017.4
20260903110411 21 223 17.7 33.8 0.00 0.13 0.13 86 1017.3
20260903105903 21 235 17.7 37.0 0.00 0.13 0.13 86 1017.4
20260903105357 21 236 20.9 43.5 0.00 0.13 0.13 86 1017.4
20260903105343 21 199 24.1 48.3 0.00 0.13 0.13 86 1017.4
20260903104356 21 273 20.9 48.3 0.00 0.13 0.13 86 1017.3
20260903103856 21 257 17.7 48.3 0.00 0.13 0.13 87 1017.1
20260903103357 21 243 19.3 48.3 0.00 0.13 0.13 87 1017.2
20260903102858 21 225 17.7 33.8 0.00 0.13 0.13 88 1017.1
20260903102400 21 250 17.7 32.2 0.00 0.13 0.13 89 1017.2
20260903102341 21 240 17.7 32.2 0.00 0.13 0.13 90 1017.3
20260903101358 20 227 16.1 30.6 0.00 0.13 0.13 92 1017.3
20260903100858 20 237 14.5 30.6 0.00 0.13 0.13 93 1017.1
20260903100358 20 218 12.9 27.4 0.00 0.13 0.13 94 1017.1
20260903095858 20 219 12.9 27.4 0.00 0.13 0.13 94 1017.1
20260903095838 20 222 14.5 33.8 0.00 0.13 0.13 95 1017.1
20260903094856 20 245 14.5 33.8 0.00 0.13 0.13 95 1017.2
20260903094839 20 247 12.9 27.4 0.00 0.13 0.13 96 1017.1
20260903094609 20 189 14.5 30.6 0.00 0.13 0.13 96 1017.1
20260903093357 20 229 11.3 24.1 0.00 0.13 0.13 96 1017.1
20260903093346 19 204 12.9 25.7 0.00 0.13 0.13 97 1017.0
20260903092843 19 204 12.9 29.0 0.00 0.13 0.13 97 1017.1
20260903092611 19 167 11.3 27.4 0.00 0.13 0.13 97 1017.1
20260903091354 19 242 12.9 29.0 0.00 0.13 0.13 97 1017.1
20260903090857 19 210 11.3 27.4 0.03 0.13 0.13 97 1016.9
20260903090847 19 185 12.9 27.4 0.03 0.13 0.13 97 1016.9
20260903085851 19 171 12.9 25.7 0.03 0.13 0.13 98 1016.8
20260903085840 19 222 11.3 24.1 0.03 0.13 0.13 98 1016.8
20260903084853 18 244 11.3 32.2 0.03 0.13 0.13 97 1016.8
20260903084838 18 211 11.3 32.2 0.03 0.13 0.13 97 1016.6
20260903083852 18 247 9.7 25.7 0.03 0.13 0.13 97 1016.6
20260903083353 18 225 11.3 24.1 0.05 0.13 0.13 98 1016.5
20260903082855 18 237 11.3 25.7 0.05 0.13 0.13 97 1016.5
20260903082354 18 233 11.3 25.7 0.05 0.13 0.13 97 1016.5
20260903081851 18 179 9.7 25.7 0.05 0.13 0.13 97 1016.5
20260903081352 18 218 9.7 25.7 0.05 0.13 0.13 97 1016.6
20260903080847 18 225 11.3 25.7 0.05 0.10 0.10 97 1016.6
20260903080348 18 177 12.9 25.7 0.05 0.10 0.10 97 1016.6
20260903075851 18 197 11.3 24.1 0.05 0.10 0.10 97 1016.7
20260903075347 18 232 11.3 22.5 0.05 0.10 0.10 97 1016.6
20260903074846 18 177 11.3 27.4 0.05 0.10 0.10 97 1016.4
20260903074341 18 212 11.3 27.4 0.05 0.10 0.10 96 1016.5
20260903073842 18 187 11.3 27.4 0.05 0.10 0.10 96 1016.5
20260903073344 18 239 12.9 27.4 0.05 0.08 0.08 96 1016.5
20260903072841 18 194 12.9 25.7 0.05 0.08 0.08 96 1016.7
20260903072342 18 229 12.9 25.7 0.05 0.08 0.08 96 1016.6
20260903071844 18 279 12.9 27.4 0.05 0.08 0.08 96 1016.5
20260903071341 18 214 14.5 29.0 0.05 0.08 0.08 96 1016.5
20260903070838 18 240 12.9 29.0 0.03 0.05 0.05 96 1016.7
20260903070336 18 193 11.3 27.4 0.05 0.05 0.05 96 1016.7
20260903065838 18 220 11.3 24.1 0.05 0.05 0.05 95 1016.7
20260903065337 18 158 11.3 25.7 0.05 0.05 0.05 95 1016.7
20260903064838 18 244 11.3 25.7 0.05 0.05 0.05 95 1016.6
20260903064338 18 225 11.3 24.1 0.05 0.05 0.05 95 1016.6
20260903063835 18 231 11.3 22.5 0.05 0.05 0.05 94 1016.7
20260903063337 18 197 11.3 25.7 0.05 0.05 0.05 94 1016.7
20260903062835 18 223 11.3 25.7 0.05 0.05 0.05 94 1016.6
20260903062823 18 222 9.7 20.9 0.05 0.05 0.05 93 1016.5
20260903061833 18 179 9.7 24.1 0.05 0.05 0.05 93 1016.5
20260903061334 18 171 9.7 24.1 0.05 0.05 0.05 92 1016.6
20260903060836 18 165 9.7 20.9 0.05 0.05 0.05 92 1016.5
20260903060332 18 246 9.7 22.5 0.03 0.03 0.03 91 1016.4
20260903055835 18 239 11.3 22.5 0.03 0.03 0.03 90 1016.4
20260903055331 18 212 11.3 25.7 0.03 0.03 0.03 90 1016.4
20260903054833 19 181 11.3 29.0 0.03 0.03 0.00 89 1016.4
20260903054331 18 208 12.9 29.0 0.00 0.00 0.00 89 1016.4
20260903053831 18 183 12.9 24.1 0.00 0.00 0.00 88 1016.4
20260903053333 19 206 12.9 25.7 0.00 0.00 0.00 88 1016.3
20260903052833 19 179 14.5 25.7 0.00 0.00 0.00 88 1016.3
20260903052333 19 228 14.5 30.6 0.00 0.00 0.00 88 1016.3
20260903051833 19 205 12.9 30.6 0.00 0.00 0.00 87 1016.4
20260903051332 19 214 12.9 29.0 0.00 0.00 0.00 87 1016.4
20260903050833 19 171 12.9 30.6 0.00 0.00 0.00 87 1016.3
20260903050333 19 218 12.9 30.6 0.00 0.00 0.00 87 1016.2
20260903045833 19 197 11.3 24.1 0.00 0.00 0.00 87 1016.2
20260903045330 19 197 11.3 29.0 0.00 0.00 0.00 86 1016.4
20260903044833 19 210 11.3 29.0 0.00 0.00 0.00 86 1016.3
20260903044332 19 157 14.5 32.2 0.00 0.00 0.00 86 1016.4
20260903043831 19 231 16.1 33.8 0.00 0.00 0.00 86 1016.3
20260903043820 18 222 11.3 29.0 0.00 0.00 0.00 86 1016.1
20260903043810 18 200 14.5 32.2 0.00 0.00 0.00 86 1016.1
20260903043537 18 202 14.5 33.8 0.00 0.00 0.00 86 1016.2
20260903041830 18 219 11.3 27.4 0.00 0.00 0.00 86 1016.1
20260903041329 18 229 12.9 30.6 0.00 0.00 0.00 86 1016.1
20260903040831 18 247 12.9 32.2 0.00 0.00 0.00 86 1016.2
20260903040333 18 174 12.9 32.2 0.00 0.00 0.00 86 1016.2
20260903040326 18 200 12.9 30.6 0.00 0.00 0.00 86 1016.3
20260903035331 18 231 12.9 27.4 0.00 0.00 0.00 86 1016.4
20260903034829 18 183 11.3 27.4 0.00 0.00 0.00 86 1016.5
20260903034330 18 179 9.7 20.9 0.00 0.00 0.00 86 1016.6
20260903033829 18 227 11.3 24.1 0.00 0.00 0.00 86 1016.7
20260903033818 18 200 12.9 24.1 0.00 0.00 0.00 86 1016.8
20260903032829 18 232 11.3 24.1 0.00 0.00 0.00 86 1016.9
20260903032331 18 243 11.3 24.1 0.00 0.00 0.00 86 1016.8
20260903031832 18 222 11.3 32.2 0.00 0.00 0.00 86 1016.7
20260903031330 18 207 11.3 32.2 0.00 0.00 0.00 86 1016.7
20260903030830 18 195 11.3 25.7 0.00 0.00 0.00 86 1016.6
20260903030330 18 189 12.9 25.7 0.00 0.00 0.00 86 1016.6
20260903025827 18 212 11.3 25.7 0.00 0.00 0.00 86 1016.6
20260903025323 18 216 9.7 25.7 0.00 0.00 0.00 86 1016.6
20260903024825 18 148 12.9 29.0 0.00 0.00 0.00 86 1016.7
20260903024323 18 203 12.9 29.0 0.00 0.00 0.00 86 1016.7
20260903023823 18 163 12.9 25.7 0.00 0.00 0.00 86 1016.8
20260903023325 18 199 14.5 40.2 0.00 0.00 0.00 85 1017.0
20260903022826 19 251 16.1 40.2 0.00 0.00 0.00 84 1016.9
20260903022325 18 177 14.5 30.6 0.00 0.00 0.00 83 1016.9
20260903021824 18 227 12.9 30.6 0.00 0.00 0.00 84 1016.9
20260903021325 18 187 12.9 27.4 0.00 0.00 0.00 84 1017.1
20260903020821 18 220 12.9 27.4 0.00 0.00 0.00 84 1017.0
20260903020323 18 196 9.7 27.4 0.00 0.00 0.00 84 1017.0
20260903015821 18 158 11.3 25.7 0.00 0.00 0.00 84 1017.0
20260903015322 18 220 11.3 25.7 0.00 0.00 0.00 83 1017.0
20260903014824 18 172 11.3 24.1 0.00 0.00 0.00 83 1017.0
20260903014321 18 190 9.7 22.5 0.00 0.00 0.00 82 1017.2
20260903014308 18 177 9.7 20.9 0.00 0.00 0.00 82 1017.3
20260903014030 18 228 9.7 19.3 0.00 0.00 0.00 82 1017.2
20260903013313 18 209 9.7 20.9 0.00 0.00 0.00 82 1017.3
20260903012323 18 220 9.7 24.1 0.00 0.00 0.00 81 1017.3
20260903011823 18 231 11.3 24.1 0.00 0.00 0.00 81 1017.3
20260903011321 18 207 9.7 22.5 0.00 0.00 0.00 81 1017.4
20260903010818 18 180 8.0 20.9 0.00 0.00 0.00 81 1017.5
20260903010317 18 215 9.7 22.5 0.00 0.00 0.00 80 1017.7
20260903005817 18 183 9.7 24.1 0.00 0.00 0.00 80 1017.6
20260903005317 18 232 9.7 24.1 0.00 0.00 0.00 80 1017.6
20260903004817 18 183 11.3 25.7 0.00 0.00 0.00 80 1017.6
20260903004319 18 187 9.7 25.7 0.00 0.00 0.00 79 1017.6
20260903003819 18 229 11.3 25.7 0.00 0.00 0.00 79 1017.8
20260903003315 18 199 11.3 25.7 0.00 0.00 0.00 79 1017.8
20260903003258 19 203 11.3 27.4 0.00 0.00 0.00 78 1018.0
20260903002319 19 224 12.9 27.4 0.00 0.00 0.00 77 1018.1
20260903001816 19 247 11.3 24.1 0.00 0.00 0.00 77 1018.0
20260903001317 18 228 9.7 24.1 0.00 0.00 0.00 77 1018.0
20260903000817 18 176 8.0 19.3 0.00 0.00 0.00 77 1018.0
20260903000317 18 210 9.7 24.1 0.00 0.00 0.00 77 1018.0
20260902235814 19 210 11.3 24.1 0.00 0.00 0.00 77 1018.0
20260902235315 18 208 11.3 22.5 0.00 0.00 0.00 77 1018.0
20260902234814 18 210 11.3 25.7 0.00 0.00 0.00 77 1018.3
20260902234314 18 216 12.9 27.4 0.00 0.00 0.00 77 1018.4
20260902233816 19 200 12.9 27.4 0.00 0.00 0.00 77 1018.3
20260902233316 19 219 11.3 27.4 0.00 0.00 0.00 76 1018.2
20260902232817 19 217 12.9 32.2 0.00 0.00 0.00 76 1018.4
20260902232309 19 187 12.9 32.2 0.00 0.00 0.00 76 1018.4
20260902231809 19 216 11.3 27.4 0.00 0.00 0.00 76 1018.5
20260902231313 19 216 12.9 35.4 0.00 0.00 0.00 76 1018.5
20260902230810 18 215 12.9 35.4 0.00 0.00 0.00 76 1018.6
20260902230310 18 223 11.3 25.7 0.00 0.00 0.00 77 1018.7
20260902225812 18 209 9.7 25.7 0.00 0.00 0.00 78 1018.7
20260902225308 18 204 9.7 25.7 0.00 0.00 0.00 78 1018.7
20260902224809 18 211 9.7 17.7 0.00 0.00 0.00 80 1018.7
20260902224311 18 214 8.0 17.7 0.00 0.00 0.00 80 1018.8
20260902223808 18 219 8.0 19.3 0.00 0.00 0.00 81 1018.8
20260902223308 18 188 8.0 19.3 0.00 0.00 0.00 81 1018.9
20260902222806 18 182 6.4 16.1 0.00 0.00 0.00 81 1019.0
20260902222745 18 203 4.8 12.9 0.00 0.00 0.00 81 1018.9
20260902222238 18 218 8.0 24.1 0.00 0.00 0.00 81 1019.1
20260902221307 18 179 9.7 24.1 0.00 0.00 0.00 80 1019.1
20260902220807 18 222 9.7 24.1 0.00 0.00 0.00 80 1019.2
20260902220309 18 234 11.3 30.6 0.00 0.00 0.00 79 1019.2
20260902215806 18 229 14.5 32.2 0.00 0.00 0.00 78 1019.4
20260902215742 19 299 16.1 32.2 0.00 0.00 0.00 77 1019.4
20260902214803 19 235 12.9 27.4 0.00 0.00 0.00 76 1019.2
20260902214304 19 208 14.5 29.0 0.00 0.00 0.00 77 1019.2
20260902213806 18 231 12.9 29.0 0.00 0.00 0.00 77 1019.1
20260902213307 18 204 9.7 25.7 0.00 0.00 0.00 79 1019.0
20260902213255 18 208 9.7 25.7 0.00 0.00 0.00 81 1019.1
20260902212740 18 157 9.7 25.7 0.00 0.00 0.00 82 1019.1
20260902212003 18 147 8.0 25.7 0.00 0.00 0.00 83 1019.1
20260902211503 18 186 4.8 11.3 0.00 0.00 0.00 85 1019.1
20260902210306 18 199 6.4 11.3 0.00 0.00 0.00 85 1019.2
20260902205805 18 160 6.4 12.9 0.00 0.00 0.00 85 1019.2
20260902205306 18 165 6.4 12.9 0.00 0.00 0.00 85 1019.2
20260902204806 18 153 4.8 11.3 0.00 0.00 0.00 85 1019.3
20260902204306 18 177 6.4 11.3 0.00 0.00 0.00 85 1019.3
20260902204248 18 181 8.0 12.9 0.00 0.00 0.00 85 1019.3
20260902203305 18 165 8.0 12.9 0.00 0.00 0.00 85 1019.3
20260902202802 18 200 6.4 12.9 0.00 0.00 0.00 85 1019.3
20260902202306 18 163 3.2 11.3 0.00 0.00 0.00 85 1019.4
20260902201804 18 166 3.2 9.7 0.00 0.00 0.00 85 1019.5
20260902201302 18 195 3.2 9.7 0.00 0.00 0.00 85 1019.4
20260902200805 18 160 4.8 8.0 0.00 0.00 0.00 85 1019.5
20260902200303 18 162 4.8 8.0 0.00 0.00 0.00 85 1019.6
20260902200243 18 187 3.2 8.0 0.00 0.00 0.00 85 1019.6
20260902195306 18 189 3.2 8.0 0.00 0.00 0.00 85 1019.6
20260902194801 18 158 3.2 8.0 0.00 0.00 0.00 85 1019.5
20260902194303 18 177 3.2 8.0 0.00 0.00 0.00 84 1019.6
20260902193803 18 175 3.2 6.4 0.00 0.00 0.00 84 1019.5
20260902193303 18 185 3.2 8.0 0.00 0.00 0.00 84 1019.7
20260902192800 18 183 4.8 9.7 0.00 0.00 0.00 84 1019.8
20260902192741 18 174 4.8 11.3 0.00 0.00 0.00 83 1019.7
20260902191759 18 168 4.8 11.3 0.00 0.00 0.00 83 1019.8
20260902191257 18 200 4.8 8.0 0.00 0.00 0.00 82 1019.9
20260902190756 18 172 4.8 8.0 0.00 0.00 0.00 82 1020.0
20260902190254 18 227 3.2 9.7 0.00 0.00 0.00 82 1019.9
20260902185755 18 171 4.8 9.7 0.00 0.00 0.00 82 1019.8
20260902185248 18 176 4.8 9.7 0.00 0.00 0.00 82 1019.8
20260902184746 19 189 4.8 8.0 0.00 0.00 0.00 81 1019.7
20260902184245 19 177 4.8 8.0 0.00 0.00 0.00 81 1019.7
20260902184234 19 169 3.2 8.0 0.00 0.00 0.00 81 1019.7
20260902183246 19 183 3.2 9.7 0.00 0.00 0.00 80 1019.8
20260902183218 19 330 4.8 11.3 0.00 0.00 0.00 80 1019.7
20260902182245 19 179 4.8 11.3 0.00 0.00 0.00 80 1019.7
20260902181745 19 217 4.8 8.0 0.00 0.00 0.00 80 1019.7
20260902181245 19 193 4.8 12.9 0.00 0.00 0.00 80 1019.8
20260902180746 19 186 4.8 12.9 0.00 0.00 0.00 79 1019.8
20260902180245 19 199 4.8 12.9 0.00 0.00 0.00 79 1020.0
20260902180225 19 209 4.8 16.1 0.00 0.00 0.00 79 1020.0
20260902175246 20 251 4.8 16.1 0.00 0.00 0.00 79 1020.0
20260902174745 20 220 8.0 17.7 0.00 0.00 0.00 79 1019.9
20260902174246 20 184 8.0 17.7 0.00 0.00 0.00 78 1019.9
20260902173746 20 170 4.8 14.5 0.00 0.00 0.00 78 1019.9
20260902173245 20 210 6.4 14.5 0.00 0.00 0.00 78 1019.8
20260902173220 20 330 6.4 12.9 0.00 0.00 0.00 77 1020.0
20260902172242 20 181 6.4 16.1 0.00 0.00 0.00 77 1020.0
20260902171745 20 213 6.4 16.1 0.00 0.00 0.00 77 1019.9